Weather History for Hillsdale, MI

Change the Weather History Date:

Wednesday, January 16, 2013

  Actual Average Record
Temperature  
Mean Temperature 28 °F -  
Max Temperature 35 °F 29 °F 55 °F (1949)
Min Temperature 20 °F 11 °F -19 °F (1972)
Degree Days  
Heating Degree Days 38    
Moisture  
Dew Point 20 °F    
Average Humidity 71    
Maximum Humidity 93    
Minimum Humidity 45    
Precipitation  
Precipitation 0.00 in - - ()
Sea Level Pressure  
Sea Level Pressure 29.92 in    
Wind  
Wind Speed 5 mph (WSW)    
Max Wind Speed 21 mph    
Max Gust Speed 26 mph    
Visibility 10 miles    
Events      
Averages and records for this station are not official NWS values.
T = Trace of Precipitation, MM = Missing Value Source: NWS Daily Summary

Daily Weather History Graph

Daily Weather History Graph

Search for Another Location

Airport:

Trip Planner

Search our weather history database for the weather conditions in past years. The results will help you decide how hot, cold, wet, or windy it might be!

Date:

Astronomy

Jan. 16, 2013 Rise Set
Actual Time 8:03 AM EST 5:33 PM EST
Civil Twilight 7:32 AM EST 6:04 PM EST
Nautical Twilight 6:58 AM EST 6:38 PM EST
Astronomical Twilight 6:24 AM EST 7:12 PM EST
Moon 10:33 AM EST (1/16) 11:31 PM EST (1/16)
Length of Visible Light 10h 32m
Length of Day
9h 30m
Waxing Crescent, 28% of the Moon is Illuminated
Jan 16
Waxing Crescent
Jan 18
First Quarter
Jan 26
Full
Feb 3
Last Quarter
Feb 10
New

Hourly Weather History & Observations

Time (EST) Temp. Windchill Dew Point Humidity Pressure Visibility Wind Dir Wind Speed Gust Speed Precip Events Conditions
12:14 AM 22.5 °F - 18.7 °F 85% 30.09 in 10.0 mi Calm Calm - N/A   Clear
12:35 AM 23.2 °F - 19.0 °F 84% 30.08 in 10.0 mi Calm Calm - N/A   Clear
1:15 AM 22.6 °F - 19.8 °F 89% 30.06 in 10.0 mi Calm Calm - N/A   Clear
1:34 AM 22.3 °F - 19.6 °F 89% 30.06 in 10.0 mi Calm Calm - N/A   Clear
1:55 AM 22.3 °F - 20.1 °F 91% 30.05 in 10.0 mi Calm Calm - N/A   Clear
2:14 AM 21.6 °F - 19.8 °F 93% 30.04 in 10.0 mi Calm Calm - N/A   Clear
2:34 AM 21.4 °F - 19.6 °F 93% 30.04 in 7.0 mi Calm Calm - N/A   Clear
2:54 AM 21.4 °F - 19.6 °F 93% 30.04 in 7.0 mi Calm Calm - N/A   Clear
3:15 AM 21.0 °F - 19.2 °F 93% 30.04 in 7.0 mi Calm Calm - N/A   Scattered Clouds
3:34 AM 20.8 °F - 19.2 °F 93% 30.02 in 7.0 mi Calm Calm - N/A   Scattered Clouds
3:55 AM 20.7 °F - 19.0 °F 93% 30.00 in 7.0 mi Calm Calm - N/A   Scattered Clouds
4:15 AM 21.4 °F - 19.8 °F 93% 30.01 in 7.0 mi Calm Calm - N/A   Mostly Cloudy
4:35 AM 22.3 °F - 20.1 °F 91% 30.00 in 10.0 mi Calm Calm - N/A   Overcast
4:54 AM 23.2 °F - 19.2 °F 85% 30.00 in 10.0 mi Calm Calm - N/A   Overcast
5:14 AM 23.2 °F - 19.2 °F 85% 29.99 in 10.0 mi Calm Calm - N/A   Overcast
5:35 AM 23.0 °F - 18.9 °F 84% 29.98 in 10.0 mi Calm Calm - N/A   Overcast
5:54 AM 23.4 °F - 19.0 °F 84% 29.97 in 10.0 mi Calm Calm - N/A   Overcast
6:15 AM 23.5 °F - 19.8 °F 85% 29.96 in 10.0 mi Calm Calm - N/A   Overcast
7:34 AM 23.2 °F - 20.7 °F 90% 29.94 in 10.0 mi Calm Calm - N/A   Overcast
7:55 AM 22.8 °F - 20.1 °F 89% 29.93 in 10.0 mi Calm Calm - N/A   Overcast
8:15 AM 22.5 °F - 19.8 °F 89% 29.93 in 10.0 mi Calm Calm - N/A   Mostly Cloudy
8:35 AM 21.7 °F - 19.6 °F 91% 29.94 in 7.0 mi Calm Calm - N/A   Scattered Clouds
8:55 AM 23.0 °F 18.4 °F 20.5 °F 90% 29.93 in 10.0 mi SW 3.5 mph - N/A   Clear
9:14 AM 24.1 °F 17.0 °F 20.5 °F 86% 29.93 in 10.0 mi WSW 5.8 mph - N/A   Clear
9:35 AM 25.2 °F 17.3 °F 20.8 °F 84% 29.93 in 10.0 mi WSW 6.9 mph - N/A   Clear
9:54 AM 26.1 °F 16.8 °F 20.8 °F 81% 29.93 in 10.0 mi WSW 9.2 mph - N/A   Clear
10:15 AM 27.0 °F 16.7 °F 20.3 °F 76% 29.93 in 10.0 mi SW 11.5 mph - N/A   Clear
10:35 AM 27.7 °F 18.8 °F 19.9 °F 73% 29.94 in 10.0 mi WSW 9.2 mph 16.1 mph N/A   Clear
10:55 AM 28.0 °F 20.0 °F 19.8 °F 71% 29.93 in 10.0 mi West 8.1 mph - N/A   Clear
11:15 AM 29.5 °F 21.8 °F 20.3 °F 69% 29.92 in 10.0 mi West 8.1 mph - N/A   Clear
11:34 AM 29.8 °F 21.5 °F 19.4 °F 65% 29.91 in 10.0 mi WSW 9.2 mph - N/A   Clear
11:54 AM 30.6 °F 20.7 °F 18.5 °F 61% 29.89 in 10.0 mi WSW 12.7 mph 17.3 mph N/A   Clear
12:15 PM 30.7 °F 20.9 °F 16.5 °F 56% 29.87 in 10.0 mi WSW 12.7 mph 19.6 mph N/A   Clear
12:34 PM 31.6 °F 23.7 °F 16.7 °F 54% 29.85 in 10.0 mi WSW 9.2 mph - N/A   Clear
12:54 PM 32.5 °F 23.2 °F 17.8 °F 55% 29.84 in 10.0 mi WSW 12.7 mph - N/A   Clear
1:14 PM 33.3 °F 23.7 °F 17.8 °F 53% 29.83 in 10.0 mi SW 13.8 mph 18.4 mph N/A   Clear
1:35 PM 34.0 °F 24.2 °F 16.9 °F 50% 29.83 in 10.0 mi SW 15.0 mph 18.4 mph N/A   Clear
1:54 PM 34.3 °F 24.6 °F 15.6 °F 46% 29.83 in 10.0 mi WSW 15.0 mph 20.7 mph N/A   Clear
2:15 PM 34.7 °F 24.3 °F 16.2 °F 47% 29.82 in 10.0 mi SW 17.3 mph - N/A   Clear
2:34 PM 35.1 °F 25.5 °F 16.2 °F 46% 29.83 in 10.0 mi WSW 15.0 mph 19.6 mph N/A   Clear
2:55 PM 35.2 °F 25.8 °F 16.5 °F 47% 29.82 in 10.0 mi SW 15.0 mph 20.7 mph N/A   Clear
3:15 PM 35.2 °F 25.8 °F 15.6 °F 45% 29.82 in 10.0 mi WSW 15.0 mph 23.0 mph N/A   Clear
3:35 PM 35.2 °F 25.4 °F 15.6 °F 45% 29.82 in 10.0 mi WSW 16.1 mph 23.0 mph N/A   Clear
3:53 PM 35.4 °F 25.6 °F 16.7 °F 47% 29.81 in 10.0 mi SW 16.1 mph 20.7 mph N/A   Clear
4:15 PM 35.2 °F 26.2 °F 16.3 °F 46% 29.82 in 10.0 mi WSW 13.8 mph 23.0 mph N/A   Scattered Clouds
4:35 PM 34.9 °F 24.6 °F 16.0 °F 46% 29.83 in 10.0 mi WSW 17.3 mph 24.2 mph N/A   Mostly Cloudy
4:55 PM 34.3 °F 24.2 °F 16.3 °F 48% 29.84 in 10.0 mi WSW 16.1 mph 24.2 mph N/A   Overcast
5:14 PM 34.2 °F 25.2 °F 17.4 °F 50% 29.84 in 10.0 mi WSW 12.7 mph 21.9 mph N/A   Overcast
5:35 PM 34.0 °F 23.8 °F 17.6 °F 51% 29.85 in 10.0 mi WSW 16.1 mph 21.9 mph N/A   Overcast
5:54 PM 33.6 °F 24.1 °F 17.8 °F 52% 29.85 in 10.0 mi WSW 13.8 mph 18.4 mph N/A   Overcast
6:14 PM 33.6 °F 24.1 °F 18.3 °F 54% 29.85 in 10.0 mi WSW 13.8 mph 21.9 mph N/A   Overcast
6:35 PM 33.6 °F 24.6 °F 18.9 °F 55% 29.86 in 10.0 mi WSW 12.7 mph 19.6 mph N/A   Overcast
6:54 PM 33.6 °F 21.9 °F 19.4 °F 56% 29.87 in 10.0 mi WSW 20.7 mph 24.2 mph N/A   Overcast
7:14 PM 33.6 °F 24.1 °F 19.9 °F 57% 29.87 in 10.0 mi SW 13.8 mph 20.7 mph N/A   Overcast
7:34 PM 33.6 °F 23.7 °F 20.5 °F 59% 29.88 in 10.0 mi WSW 15.0 mph 23.0 mph N/A   Overcast
7:55 PM 33.3 °F 23.7 °F 21.6 °F 62% 29.89 in 10.0 mi West 13.8 mph 26.5 mph N/A   Overcast
8:14 PM 32.5 °F 22.7 °F 23.4 °F 69% 29.89 in 10.0 mi West 13.8 mph 25.3 mph N/A   Overcast
8:35 PM 32.4 °F 22.5 °F 24.6 °F 73% 29.91 in 10.0 mi West 13.8 mph 21.9 mph N/A   Overcast
8:54 PM 32.4 °F 23.0 °F 24.6 °F 73% 29.91 in 10.0 mi WSW 12.7 mph 19.6 mph N/A   Overcast
9:15 PM 32.5 °F 24.2 °F 24.1 °F 71% 29.92 in 10.0 mi WSW 10.4 mph 16.1 mph N/A   Overcast
9:34 PM 32.7 °F 23.4 °F 24.3 °F 71% 29.92 in 10.0 mi WSW 12.7 mph 17.3 mph N/A   Overcast
9:55 PM 32.7 °F 25.7 °F 24.6 °F 72% 29.93 in 10.0 mi WSW 8.1 mph 17.3 mph N/A   Overcast
10:15 PM 32.7 °F 25.0 °F 25.0 °F 73% 29.92 in 10.0 mi WSW 9.2 mph - N/A   Overcast
10:34 PM 32.7 °F 25.0 °F 25.0 °F 73% 29.93 in 10.0 mi West 9.2 mph - N/A   Overcast
10:55 PM 33.3 °F 22.8 °F 25.5 °F 73% 29.93 in 10.0 mi West 16.1 mph 20.7 mph N/A   Overcast
11:14 PM 33.4 °F 24.8 °F 26.2 °F 75% 29.93 in 10.0 mi West 11.5 mph - N/A   Overcast
11:35 PM 33.6 °F 24.1 °F 27.1 °F 77% 29.95 in 10.0 mi West 13.8 mph 21.9 mph N/A   Overcast
11:54 PM 33.6 °F 25.0 °F 27.1 °F 77% 29.96 in 10.0 mi West 11.5 mph 18.4 mph N/A   Overcast